,,PA_Meas_PMT16A,,PR_Meas_QMR101_102,,RH_Meas_QMH101,,SR_Meas_QMS101,,TA_Meas_QMH101,,GenWind,,GenWind,
time,status,PA,status,PR,status,RH,status,SR,status,TA,status,DirAvg,status,SpdAvg,
2010-12-21, 00:00:04,VALID,917.156,VALID,0,VALID,95.8721,VALID,0,VALID,19.5663,VALID,355,VALID,0.294531,
2010-12-21, 00:01:04,VALID,917.153,VALID,0,VALID,95.8263,VALID,0,VALID,19.5468,VALID,355,VALID,0.259375,
2010-12-21, 00:02:04,VALID,917.161,VALID,0,VALID,95.9712,VALID,0,VALID,19.5663,VALID,355,VALID,0.262109,
2010-12-21, 00:03:04,VALID,917.159,VALID,0,VALID,95.9864,VALID,0,VALID,19.5663,VALID,355,VALID,0.301953,
2010-12-21, 00:04:04,VALID,917.191,VALID,0,VALID,95.9712,VALID,0,VALID,19.5663,VALID,355,VALID,0.133203,
2010-12-21, 00:05:04,VALID,917.199,VALID,0,VALID,95.9864,VALID,0,VALID,19.5648,VALID,355,VALID,0.128516,
2010-12-21, 00:06:04,VALID,917.201,VALID,0,VALID,95.9483,VALID,0,VALID,19.5468,VALID,355,VALID,0.183594,
2010-12-21, 00:07:04,VALID,917.2,VALID,0,VALID,96.0017,VALID,0,VALID,19.5468,VALID,355,VALID,0.100781,
2010-12-21, 00:08:04,VALID,917.205,VALID,0,VALID,96.055,VALID,0,VALID,19.5468,VALID,355,VALID,0.235156,
2010-12-21, 00:09:04,VALID,917.196,VALID,0,VALID,96.0474,VALID,0,VALID,19.5273,VALID,355,VALID,0.290625,
2010-12-21, 00:10:04,VALID,917.171,VALID,0,VALID,96.1008,VALID,0,VALID,19.5273,VALID,355,VALID,0.164844,
2010-12-21, 00:11:04,VALID,917.141,VALID,0,VALID,96.0932,VALID,0,VALID,19.5468,VALID,355,VALID,0.00351562,
2010-12-21, 00:12:04,VALID,917.147,VALID,0,VALID,96.116,VALID,0,VALID,19.5273,VALID,355,VALID,0.219922,
2010-12-21, 00:13:04,VALID,917.106,VALID,0,VALID,96.116,VALID,0,VALID,19.5273,VALID,355,VALID,0.13125,
2010-12-21, 00:14:04,VALID,917.1,VALID,0,VALID,96.1618,VALID,0,VALID,19.5678,VALID,355,VALID,0.105469,
2010-12-21, 00:15:04,VALID,917.138,VALID,0,VALID,96.177,VALID,0,VALID,19.5273,VALID,355,VALID,0,
2010-12-21, 00:16:04,VALID,917.123,VALID,0,VALID,96.2304,VALID,0,VALID,19.5468,VALID,355,VALID,0,
2010-12-21, 00:17:04,VALID,917.12,VALID,0,VALID,96.2304,VALID,0,VALID,19.5468,VALID,355,VALID,0.567969,
2010-12-21, 00:18:04,VALID,917.144,VALID,0,VALID,96.2685,VALID,0,VALID,19.5468,VALID,355,VALID,0.599609,
2010-12-21, 00:19:04,VALID,917.124,VALID,0,VALID,96.3066,VALID,0,VALID,19.5858,VALID,355,VALID,0.808594,
2010-12-21, 00:20:04,VALID,917.131,VALID,0,VALID,96.299,VALID,0,VALID,19.5858,VALID,355,VALID,0.577344,
2010-12-21, 00:21:04,VALID,917.115,VALID,0,VALID,96.1618,VALID,0,VALID,19.5078,VALID,355,VALID,0.570703,
2010-12-21, 00:22:04,VALID,917.138,VALID,0,VALID,96.238,VALID,0,VALID,19.4883,VALID,355,VALID,0.557422,
2010-12-21, 00:23:04,VALID,917.132,VALID,0,VALID,96.3371,VALID,0,VALID,19.5093,VALID,355,VALID,0.03125,
2010-12-21, 00:24:04,VALID,917.154,VALID,0,VALID,96.299,VALID,0,VALID,19.4688,VALID,355,VALID,0.23125,
2010-12-21, 00:25:04,VALID,917.153,VALID,0,VALID,96.2914,VALID,0,VALID,19.4688,VALID,355,VALID,0.392578,
2010-12-21, 00:26:04,VALID,917.152,VALID,0,VALID,96.3219,VALID,0,VALID,19.4493,VALID,355,VALID,0.0183594,
2010-12-21, 00:27:04,VALID,917.156,VALID,0,VALID,96.3371,VALID,0,VALID,19.4493,VALID,355,VALID,0.636328,
2010-12-21, 00:28:04,VALID,917.152,VALID,0,VALID,96.3829,VALID,0,VALID,19.4688,VALID,355,VALID,0.433594,
2010-12-21, 00:29:04,VALID,917.137,VALID,0,VALID,96.3142,VALID,0,VALID,19.4298,VALID,355,VALID,0.59375,
2010-12-21, 00:30:04,VALID,917.117,VALID,0,VALID,96.2837,VALID,0,VALID,19.4103,VALID,355,VALID,0.677344,
2010-12-21, 00:31:04,VALID,917.113,VALID,0,VALID,96.3524,VALID,0,VALID,19.3713,VALID,355,VALID,0.525,
2010-12-21, 00:32:04,VALID,917.103,VALID,0,VALID,96.3981,VALID,0,VALID,19.4118,VALID,355,VALID,0.403516,
2010-12-21, 00:33:04,VALID,917.087,VALID,0,VALID,96.3905,VALID,0,VALID,19.3518,VALID,355,VALID,0.592578,
2010-12-21, 00:34:04,VALID,917.073,VALID,0,VALID,96.3829,VALID,0,VALID,19.3518,VALID,355,VALID,0.671875,
2010-12-21, 00:35:04,VALID,917.081,VALID,0,VALID,96.4972,VALID,0,VALID,19.3518,VALID,355,VALID,0.594141,
2010-12-21, 00:36:04,VALID,917.081,VALID,0,VALID,96.5277,VALID,0,VALID,19.3908,VALID,355,VALID,0.563281,
2010-12-21, 00:37:04,VALID,917.057,VALID,0,VALID,96.5963,VALID,0,VALID,19.3908,VALID,355,VALID,0.189063,
2010-12-21, 00:38:04,VALID,917.018,VALID,0,VALID,96.4896,VALID,0,VALID,19.3518,VALID,354,VALID,0.570313,
2010-12-21, 00:39:04,VALID,917.036,VALID,0,VALID,96.421,VALID,0,VALID,19.2933,VALID,355,VALID,0.647266,
2010-12-21, 00:40:04,VALID,917.025,VALID,0,VALID,96.4515,VALID,0,VALID,19.2543,VALID,355,VALID,0.635547,
2010-12-21, 00:41:04,VALID,917.007,VALID,0,VALID,96.5048,VALID,0,VALID,19.2543,VALID,355,VALID,0.195313,
2010-12-21, 00:42:04,VALID,917.01,VALID,0,VALID,96.5582,VALID,0,VALID,19.2543,VALID,355,VALID,0.310156,
2010-12-21, 00:43:04,VALID,916.983,VALID,0,VALID,96.6497,VALID,0,VALID,19.2933,VALID,355,VALID,0.276953,
2010-12-21, 00:44:04,VALID,916.95,VALID,0,VALID,96.5506,VALID,0,VALID,19.3128,VALID,355,VALID,0.694922,
2010-12-21, 00:45:04,VALID,916.918,VALID,0,VALID,96.5887,VALID,0,VALID,19.2738,VALID,355,VALID,0.70625,
2010-12-21, 00:46:04,VALID,916.924,VALID,0,VALID,96.4819,VALID,0,VALID,19.2348,VALID,355,VALID,0.591016,
2010-12-21, 00:47:04,VALID,916.911,VALID,0,VALID,96.4972,VALID,0,VALID,19.2363,VALID,355,VALID,0.479688,
2010-12-21, 00:48:04,VALID,916.861,VALID,0,VALID,96.5429,VALID,0,VALID,19.2168,VALID,355,VALID,0.347656,
2010-12-21, 00:49:04,VALID,916.887,VALID,0,VALID,96.5429,VALID,0,VALID,19.1763,VALID,355,VALID,0.407813,
2010-12-21, 00:50:04,VALID,916.85,VALID,0,VALID,96.5048,VALID,0,VALID,19.1568,VALID,355,VALID,0.538281,
2010-12-21, 00:51:04,VALID,916.821,VALID,0,VALID,96.5582,VALID,0,VALID,19.1373,VALID,355,VALID,0.390234,
2010-12-21, 00:52:04,VALID,916.776,VALID,0,VALID,96.5429,VALID,0,VALID,19.1373,VALID,355,VALID,0.415234,
2010-12-21, 00:53:04,VALID,916.764,VALID,0,VALID,96.4896,VALID,0,VALID,19.1178,VALID,355,VALID,0.516406,
2010-12-21, 00:54:04,VALID,916.734,VALID,0,VALID,96.4515,VALID,0,VALID,19.0983,VALID,355,VALID,0.501172,
2010-12-21, 00:55:04,VALID,916.76,VALID,0,VALID,96.4057,VALID,0,VALID,19.0998,VALID,355,VALID,0.795313,
2010-12-21, 00:56:04,VALID,916.708,VALID,0,VALID,96.3981,VALID,0,VALID,19.0983,VALID,355,VALID,0.423828,
2010-12-21, 00:57:04,VALID,916.701,VALID,0,VALID,96.3676,VALID,0,VALID,19.1193,VALID,355,VALID,0.54375,
2010-12-21, 00:58:04,VALID,916.673,VALID,0,VALID,96.3447,VALID,0,VALID,19.0983,VALID,355,VALID,0.429297,
2010-12-21, 00:59:04,VALID,916.642,VALID,0,VALID,96.238,VALID,0,VALID,19.0788,VALID,355,VALID,0.448047,
2010-12-21, 01:00:04,VALID,916.647,VALID,0,VALID,96.1389,VALID,0,VALID,19.0593,VALID,355,VALID,0.205859,
2010-12-21, 01:01:04,VALID,916.626,VALID,0,VALID,96.0779,VALID,0,VALID,19.0593,VALID,355,VALID,0.363281,
2010-12-21, 01:02:04,VALID,916.645,VALID,0,VALID,96.0093,VALID,0,VALID,19.0398,VALID,357,VALID,0.710156,
2010-12-21, 01:03:04,VALID,916.647,VALID,0,VALID,95.895,VALID,0,VALID,19.0203,VALID,7,VALID,0.684375,
2010-12-21, 01:04:04,VALID,916.638,VALID,0,VALID,95.8721,VALID,0,VALID,19.0398,VALID,7,VALID,0.622656,
2010-12-21, 01:05:04,VALID,916.649,VALID,0,VALID,95.6357,VALID,0,VALID,19.0203,VALID,7,VALID,0.639063,
2010-12-21, 01:06:04,VALID,916.63,VALID,0,VALID,95.6815,VALID,0,VALID,19.0593,VALID,7,VALID,0.294922,
2010-12-21, 01:07:04,VALID,916.634,VALID,0,VALID,95.5367,VALID,0,VALID,19.0788,VALID,7,VALID,0.373828,
2010-12-21, 01:08:04,VALID,916.61,VALID,0,VALID,95.4375,VALID,0,VALID,19.0788,VALID,7,VALID,0.0242187,
2010-12-21, 01:09:04,VALID,916.603,VALID,0,VALID,95.2393,VALID,0,VALID,19.0788,VALID,7,VALID,0.387109,
2010-12-21, 01:10:04,VALID,916.605,VALID,0,VALID,95.0945,VALID,0,VALID,19.0788,VALID,7,VALID,0.226563,
2010-12-21, 01:11:04,VALID,916.604,VALID,0,VALID,95.0869,VALID,0,VALID,19.0983,VALID,7,VALID,0.440625,
2010-12-21, 01:12:04,VALID,916.598,VALID,0,VALID,95.2622,VALID,0,VALID,19.1373,VALID,8,VALID,0.267969,
2010-12-21, 01:13:04,VALID,916.527,VALID,0,VALID,95.4147,VALID,0,VALID,19.1568,VALID,7,VALID,0,
2010-12-21, 01:14:04,VALID,916.493,VALID,0,VALID,95.5138,VALID,0,VALID,19.1763,VALID,7,VALID,0.08125,
2010-12-21, 01:15:04,VALID,916.501,VALID,0,VALID,95.5671,VALID,0,VALID,19.1763,VALID,7,VALID,0.0832031,
2010-12-21, 01:16:04,VALID,916.466,VALID,0,VALID,95.5519,VALID,0,VALID,19.1763,VALID,7,VALID,0.150781,
2010-12-21, 01:17:04,VALID,916.441,VALID,0,VALID,95.6205,VALID,0,VALID,19.2153,VALID,7,VALID,0,
2010-12-21, 01:18:04,VALID,916.4,VALID,0,VALID,95.6434,VALID,0,VALID,19.2153,VALID,7,VALID,0.0566406,
2010-12-21, 01:19:04,VALID,916.388,VALID,0,VALID,95.468,VALID,0,VALID,19.1958,VALID,7,VALID,0.116406,
2010-12-21, 01:20:04,VALID,916.344,VALID,0,VALID,95.468,VALID,0,VALID,19.1958,VALID,7,VALID,0.0894531,
2010-12-21, 01:21:04,VALID,916.354,VALID,0,VALID,95.4833,VALID,0,VALID,19.2348,VALID,7,VALID,0.279297,
2010-12-21, 01:22:04,VALID,916.339,VALID,0,VALID,95.5138,VALID,0,VALID,19.2543,VALID,7,VALID,0.298828,
2010-12-21, 01:23:04,VALID,916.292,VALID,0,VALID,95.4528,VALID,0,VALID,19.2153,VALID,7,VALID,0.257031,
2010-12-21, 01:24:04,VALID,916.301,VALID,0,VALID,95.4223,VALID,0,VALID,19.2153,VALID,7,VALID,0.392578,
2010-12-21, 01:25:04,VALID,916.269,VALID,0,VALID,95.2393,VALID,0,VALID,19.2153,VALID,7,VALID,0.369922,
2010-12-21, 01:26:04,VALID,916.267,VALID,0,VALID,95.0106,VALID,0,VALID,19.1763,VALID,7,VALID,0.535547,
2010-12-21, 01:27:04,VALID,916.221,VALID,0,VALID,94.8887,VALID,0,VALID,19.1568,VALID,7,VALID,0.291406,
2010-12-21, 01:28:04,VALID,916.218,VALID,0,VALID,94.7362,VALID,0,VALID,19.1778,VALID,7,VALID,0.348437,
2010-12-21, 01:29:04,VALID,916.196,VALID,0,VALID,94.7362,VALID,0,VALID,19.1958,VALID,8,VALID,0.096875,
2010-12-21, 01:30:04,VALID,916.138,VALID,0,VALID,94.6905,VALID,0,VALID,19.1763,VALID,7,VALID,0.360938,
2010-12-21, 01:31:04,VALID,916.139,VALID,0,VALID,94.7972,VALID,0,VALID,19.1973,VALID,7,VALID,0.348437,
2010-12-21, 01:32:04,VALID,916.115,VALID,0,VALID,94.9268,VALID,0,VALID,19.1958,VALID,7,VALID,0.289063,
2010-12-21, 01:33:04,VALID,916.098,VALID,0,VALID,94.9192,VALID,0,VALID,19.1568,VALID,7,VALID,0.162891,
2010-12-21, 01:34:04,VALID,916.086,VALID,0,VALID,95.1479,VALID,0,VALID,19.1778,VALID,7,VALID,0.145703,
2010-12-21, 01:35:04,VALID,916.095,VALID,0,VALID,95.3156,VALID,0,VALID,19.1554,VALID,7,VALID,0,
2010-12-21, 01:36:04,VALID,916.068,VALID,0,VALID,95.3766,VALID,0,VALID,19.1568,VALID,7,VALID,0,
2010-12-21, 01:37:04,VALID,916.106,VALID,0,VALID,95.2851,VALID,0,VALID,19.1373,VALID,7,VALID,0,
2010-12-21, 01:38:04,VALID,916.079,VALID,0,VALID,95.2851,VALID,0,VALID,19.0983,VALID,8,VALID,0,
2010-12-21, 01:39:04,VALID,916.038,VALID,0,VALID,95.247,VALID,0,VALID,19.0788,VALID,7,VALID,0,
2010-12-21, 01:40:04,VALID,916.041,VALID,0,VALID,95.2012,VALID,0,VALID,19.0788,VALID,7,VALID,0,
2010-12-21, 01:41:04,VALID,916.044,VALID,0,VALID,95.1707,VALID,0,VALID,19.0593,VALID,7,VALID,0,
2010-12-21, 01:42:04,VALID,916.025,VALID,0,VALID,95.0869,VALID,0,VALID,19.0203,VALID,7,VALID,0,
2010-12-21, 01:43:04,VALID,916.039,VALID,0,VALID,95.0564,VALID,0,VALID,19.0023,VALID,8,VALID,0,
2010-12-21, 01:44:04,VALID,916.045,VALID,0,VALID,94.9573,VALID,0,VALID,18.9828,VALID,7,VALID,0,
2010-12-21, 01:45:04,VALID,916.014,VALID,0,VALID,94.8582,VALID,0,VALID,18.9438,VALID,7,VALID,0,
2010-12-21, 01:46:04,VALID,916.016,VALID,0,VALID,94.7438,VALID,0,VALID,18.8853,VALID,7,VALID,0.246484,
2010-12-21, 01:47:04,VALID,916.03,VALID,0,VALID,94.7438,VALID,0,VALID,18.8254,VALID,7,VALID,0.236328,
2010-12-21, 01:48:04,VALID,916.016,VALID,0,VALID,94.8734,VALID,0,VALID,18.8268,VALID,8,VALID,0.06875,
2010-12-21, 01:49:04,VALID,916.01,VALID,0,VALID,94.7514,VALID,0,VALID,18.8073,VALID,7,VALID,0.374609,
2010-12-21, 01:50:04,VALID,915.991,VALID,0,VALID,94.6295,VALID,0,VALID,18.7878,VALID,7,VALID,0.538672,
2010-12-21, 01:51:04,VALID,915.968,VALID,0,VALID,94.3703,VALID,0,VALID,18.7669,VALID,7,VALID,0.643359,
2010-12-21, 01:52:04,VALID,916,VALID,0,VALID,94.1339,VALID,0,VALID,18.7864,VALID,7,VALID,0.427344,
2010-12-21, 01:53:04,VALID,915.975,VALID,0,VALID,94.0806,VALID,0,VALID,18.7669,VALID,7,VALID,0.199219,
2010-12-21, 01:54:04,VALID,915.969,VALID,0,VALID,94.0653,VALID,0,VALID,18.7864,VALID,7,VALID,0.132422,
2010-12-21, 01:55:04,VALID,915.968,VALID,0,VALID,94.233,VALID,0,VALID,18.8254,VALID,7,VALID,0,
2010-12-21, 01:56:04,VALID,915.951,VALID,0,VALID,94.4846,VALID,0,VALID,18.8449,VALID,7,VALID,0.108203,
2010-12-21, 01:57:04,VALID,915.924,VALID,0,VALID,94.4084,VALID,0,VALID,18.8463,VALID,7,VALID,0.462891,
2010-12-21, 01:58:04,VALID,915.899,VALID,0,VALID,94.1339,VALID,0,VALID,18.8073,VALID,7,VALID,0.825391,
2010-12-21, 01:59:04,VALID,915.895,VALID,0,VALID,93.8366,VALID,0,VALID,18.7279,VALID,7,VALID,0.637891,
2010-12-21, 02:00:04,VALID,915.904,VALID,0,VALID,93.4783,VALID,0,VALID,18.7279,VALID,7,VALID,0.675781,
2010-12-21, 02:01:04,VALID,915.929,VALID,0,VALID,93.3411,VALID,0,VALID,18.7279,VALID,7,VALID,0.423828,
2010-12-21, 02:02:04,VALID,915.889,VALID,0,VALID,93.5241,VALID,0,VALID,18.7084,VALID,7,VALID,0.339844,
2010-12-21, 02:03:04,VALID,915.875,VALID,0,VALID,93.303,VALID,0,VALID,18.6694,VALID,7,VALID,0.749609,
2010-12-21, 02:04:04,VALID,915.854,VALID,0,VALID,93.1276,VALID,0,VALID,18.6708,VALID,7,VALID,0.728516,
2010-12-21, 02:05:04,VALID,915.815,VALID,0,VALID,93.0285,VALID,0,VALID,18.6499,VALID,7,VALID,0.459766,
2010-12-21, 02:06:04,VALID,915.825,VALID,0,VALID,92.9904,VALID,0,VALID,18.6694,VALID,7,VALID,0.367969,
2010-12-21, 02:07:04,VALID,915.84,VALID,0,VALID,92.9447,VALID,0,VALID,18.6889,VALID,7,VALID,0.304297,
2010-12-21, 02:08:04,VALID,915.83,VALID,0,VALID,93.1886,VALID,0,VALID,18.6889,VALID,7,VALID,0.228125,
2010-12-21, 02:09:04,VALID,915.791,VALID,0,VALID,93.2954,VALID,0,VALID,18.7488,VALID,7,VALID,0.349609,
2010-12-21, 02:10:04,VALID,915.826,VALID,0,VALID,93.1963,VALID,0,VALID,18.7488,VALID,7,VALID,0.678906,
2010-12-21, 02:11:04,VALID,915.797,VALID,0,VALID,92.4644,VALID,0,VALID,18.7084,VALID,7,VALID,0.498047,
2010-12-21, 02:12:04,VALID,915.796,VALID,0,VALID,92.3196,VALID,0,VALID,18.7098,VALID,7,VALID,0.332812,
2010-12-21, 02:13:04,VALID,915.823,VALID,0,VALID,92.4187,VALID,0,VALID,18.6889,VALID,7,VALID,0.562109,
2010-12-21, 02:14:04,VALID,915.799,VALID,0,VALID,92.3653,VALID,0,VALID,18.6889,VALID,7,VALID,0.577344,
2010-12-21, 02:15:04,VALID,915.775,VALID,0,VALID,91.7859,VALID,0,VALID,18.7098,VALID,7,VALID,0.8125,
2010-12-21, 02:16:04,VALID,915.745,VALID,0,VALID,91.824,VALID,0,VALID,18.6889,VALID,7,VALID,0.767578,
2010-12-21, 02:17:04,VALID,915.767,VALID,0,VALID,91.8774,VALID,0,VALID,18.6903,VALID,7,VALID,0.539063,
2010-12-21, 02:18:04,VALID,915.765,VALID,0,VALID,92.251,VALID,0,VALID,18.6499,VALID,7,VALID,0.525,
2010-12-21, 02:19:04,VALID,915.734,VALID,0,VALID,92.6245,VALID,0,VALID,18.5914,VALID,7,VALID,0.728516,
2010-12-21, 02:20:04,VALID,915.713,VALID,0,VALID,92.251,VALID,0,VALID,18.5525,VALID,7,VALID,1.00352,
2010-12-21, 02:21:04,VALID,915.716,VALID,0,VALID,92.3424,VALID,0,VALID,18.5539,VALID,7,VALID,1.11289,
2010-12-21, 02:22:04,VALID,915.711,VALID,0,VALID,92.472,VALID,0,VALID,18.5344,VALID,7,VALID,0.930859,
2010-12-21, 02:23:04,VALID,915.704,VALID,0,VALID,92.777,VALID,0,VALID,18.5135,VALID,7,VALID,0.379687,
2010-12-21, 02:24:04,VALID,915.697,VALID,0,VALID,92.8837,VALID,0,VALID,18.5344,VALID,7,VALID,0.447266,
2010-12-21, 02:25:04,VALID,915.7,VALID,0,VALID,92.8837,VALID,0,VALID,18.5135,VALID,7,VALID,0.419531,
2010-12-21, 02:26:04,VALID,915.645,VALID,0,VALID,92.9142,VALID,0,VALID,18.533,VALID,7,VALID,0.0382813,
2010-12-21, 02:27:04,VALID,915.689,VALID,0,VALID,92.9676,VALID,0,VALID,18.533,VALID,7,VALID,0.00195313,
2010-12-21, 02:28:04,VALID,915.637,VALID,0,VALID,93.0285,VALID,0,VALID,18.5539,VALID,7,VALID,0.01875,
2010-12-21, 02:29:04,VALID,915.636,VALID,0,VALID,93.1048,VALID,0,VALID,18.5539,VALID,7,VALID,0,
2010-12-21, 02:30:04,VALID,915.646,VALID,0,VALID,93.1353,VALID,0,VALID,18.5525,VALID,7,VALID,0,
2010-12-21, 02:31:04,VALID,915.618,VALID,0,VALID,93.0972,VALID,0,VALID,18.5344,VALID,7,VALID,0.332812,
2010-12-21, 02:32:04,VALID,915.598,VALID,0,VALID,93.2268,VALID,0,VALID,18.4759,VALID,7,VALID,0.498828,
2010-12-21, 02:33:04,VALID,915.623,VALID,0,VALID,93.4478,VALID,0,VALID,18.4369,VALID,7,VALID,0.595312,
2010-12-21, 02:34:04,VALID,915.594,VALID,0,VALID,93.1353,VALID,0,VALID,18.3784,VALID,7,VALID,1.09219,
2010-12-21, 02:35:04,VALID,915.606,VALID,0,VALID,92.6702,VALID,0,VALID,18.3185,VALID,7,VALID,1.24141,
2010-12-21, 02:36:04,VALID,915.573,VALID,0,VALID,92.0146,VALID,0,VALID,18.3589,VALID,7,VALID,1.21055,
2010-12-21, 02:37:04,VALID,915.588,VALID,0,VALID,91.9231,VALID,0,VALID,18.3965,VALID,7,VALID,0.880078,
2010-12-21, 02:38:04,VALID,915.568,VALID,0,VALID,90.9321,VALID,0,VALID,18.4174,VALID,7,VALID,0.811328,
2010-12-21, 02:39:04,VALID,915.526,VALID,0,VALID,90.9931,VALID,0,VALID,18.4759,VALID,7,VALID,0.406641,
2010-12-21, 02:40:04,VALID,915.535,VALID,0,VALID,90.8406,VALID,0,VALID,18.4954,VALID,7,VALID,0.333594,
2010-12-21, 02:41:04,VALID,915.5,VALID,0,VALID,90.9169,VALID,0,VALID,18.5149,VALID,7,VALID,0.35625,
2010-12-21, 02:42:04,VALID,915.501,VALID,0,VALID,90.9321,VALID,0,VALID,18.5344,VALID,7,VALID,0.00820312,
2010-12-21, 02:43:04,VALID,915.499,VALID,0,VALID,92.4034,VALID,0,VALID,18.5525,VALID,7,VALID,0.00976563,
2010-12-21, 02:44:04,VALID,915.485,VALID,0,VALID,94.0043,VALID,0,VALID,18.6124,VALID,7,VALID,0.328906,
2010-12-21, 02:45:04,VALID,915.494,VALID,0,VALID,94.6828,VALID,0,VALID,18.6319,VALID,7,VALID,0.369531,
2010-12-21, 02:46:04,VALID,915.45,VALID,0,VALID,94.7972,VALID,0,VALID,18.572,VALID,7,VALID,0.0671875,
2010-12-21, 02:47:04,VALID,915.451,VALID,0,VALID,94.1492,VALID,0,VALID,18.455,VALID,7,VALID,0.240234,
2010-12-21, 02:48:04,VALID,915.437,VALID,0,VALID,93.6003,VALID,0,VALID,18.377,VALID,7,VALID,0.110937,
2010-12-21, 02:49:04,VALID,915.411,VALID,0,VALID,93.7604,VALID,0,VALID,18.3575,VALID,7,VALID,0.0136719,
2010-12-21, 02:50:04,VALID,915.393,VALID,0,VALID,94.1111,VALID,0,VALID,18.3589,VALID,7,VALID,0.550391,
2010-12-21, 02:51:04,VALID,915.37,VALID,0,VALID,93.707,VALID,0,VALID,18.2796,VALID,7,VALID,0.519141,
2010-12-21, 02:52:04,VALID,915.369,VALID,0,VALID,93.2649,VALID,0,VALID,18.2211,VALID,7,VALID,0.440234,
2010-12-21, 02:53:04,VALID,915.333,VALID,0,VALID,92.8837,VALID,0,VALID,18.1626,VALID,7,VALID,0.299219,
2010-12-21, 02:54:04,VALID,915.346,VALID,0,VALID,92.8913,VALID,0,VALID,18.1821,VALID,7,VALID,0,
2010-12-21, 02:55:04,VALID,915.325,VALID,0,VALID,93.0362,VALID,0,VALID,18.1626,VALID,7,VALID,0,
2010-12-21, 02:56:04,VALID,915.307,VALID,0,VALID,92.6931,VALID,0,VALID,18.1626,VALID,7,VALID,0.196875,
2010-12-21, 02:57:04,VALID,915.286,VALID,0,VALID,92.7693,VALID,0,VALID,18.203,VALID,7,VALID,0.0234375,
2010-12-21, 02:58:04,VALID,915.293,VALID,0,VALID,92.6626,VALID,0,VALID,18.1835,VALID,7,VALID,0,
2010-12-21, 02:59:04,VALID,915.273,VALID,0,VALID,92.4415,VALID,0,VALID,18.203,VALID,7,VALID,0,
2010-12-21, 03:00:04,VALID,915.256,VALID,0,VALID,92.5254,VALID,0,VALID,18.203,VALID,7,VALID,0,
2010-12-21, 03:01:04,VALID,915.241,VALID,0,VALID,92.533,VALID,0,VALID,18.1821,VALID,7,VALID,0.0246094,
2010-12-21, 03:02:04,VALID,915.267,VALID,0,VALID,92.4568,VALID,0,VALID,18.1626,VALID,7,VALID,0.307813,
2010-12-21, 03:03:04,VALID,915.224,VALID,0,VALID,92.4034,VALID,0,VALID,18.1835,VALID,7,VALID,0.128906,
2010-12-21, 03:04:04,VALID,915.194,VALID,0,VALID,92.4263,VALID,0,VALID,18.1626,VALID,7,VALID,0,
2010-12-21, 03:05:04,VALID,915.164,VALID,0,VALID,92.4644,VALID,0,VALID,18.1236,VALID,7,VALID,0,
2010-12-21, 03:06:04,VALID,915.163,VALID,0,VALID,92.411,VALID,0,VALID,18.1041,VALID,7,VALID,0,
2010-12-21, 03:07:04,VALID,915.152,VALID,0,VALID,92.4644,VALID,0,VALID,18.1041,VALID,7,VALID,0,
2010-12-21, 03:08:04,VALID,915.134,VALID,0,VALID,92.655,VALID,0,VALID,18.086,VALID,7,VALID,0.0585938,
2010-12-21, 03:09:04,VALID,915.124,VALID,0,VALID,92.8303,VALID,0,VALID,18.0457,VALID,7,VALID,0.114063,
2010-12-21, 03:10:04,VALID,915.124,VALID,0,VALID,93.1505,VALID,0,VALID,18.0457,VALID,7,VALID,0.292969,
2010-12-21, 03:11:04,VALID,915.139,VALID,0,VALID,94.1187,VALID,0,VALID,18.1445,VALID,7,VALID,0.464844,
2010-12-21, 03:12:04,VALID,915.133,VALID,0,VALID,94.2254,VALID,0,VALID,18.1236,VALID,7,VALID,0.326953,
2010-12-21, 03:13:04,VALID,915.081,VALID,0,VALID,93.6918,VALID,0,VALID,18.086,VALID,7,VALID,0.123828,
2010-12-21, 03:14:04,VALID,915.089,VALID,0,VALID,93.5317,VALID,0,VALID,18.047,VALID,7,VALID,0.0660156,
2010-12-21, 03:15:04,VALID,915.086,VALID,0,VALID,94.3474,VALID,0,VALID,18.0846,VALID,7,VALID,0.448828,
2010-12-21, 03:16:04,VALID,915.081,VALID,0,VALID,95.3156,VALID,0.107441,VALID,18.1821,VALID,7,VALID,0.754297,
2010-12-21, 03:17:04,VALID,915.041,VALID,0,VALID,95.1402,VALID,0.107441,VALID,18.1028,VALID,7,VALID,0.149609,
2010-12-21, 03:18:04,VALID,915.021,VALID,0,VALID,94.6066,VALID,0.107441,VALID,17.9858,VALID,7,VALID,0.0949219,
2010-12-21, 03:19:04,VALID,915.001,VALID,0,VALID,94.0882,VALID,0.107441,VALID,17.9092,VALID,7,VALID,0.356641,
2010-12-21, 03:20:04,VALID,914.998,VALID,0,VALID,94.5456,VALID,0,VALID,17.8702,VALID,7,VALID,0.798437,
2010-12-21, 03:21:04,VALID,915.021,VALID,0,VALID,94.9115,VALID,0.107441,VALID,17.9092,VALID,7,VALID,0.237109,
2010-12-21, 03:22:04,VALID,914.982,VALID,0,VALID,94.9725,VALID,0.107441,VALID,17.9287,VALID,7,VALID,0.0460938,
2010-12-21, 03:23:04,VALID,914.945,VALID,0,VALID,94.9954,VALID,0,VALID,17.9287,VALID,7,VALID,0,
2010-12-21, 03:24:04,VALID,914.918,VALID,0,VALID,95.0106,VALID,0.107441,VALID,17.9287,VALID,7,VALID,0,
2010-12-21, 03:25:04,VALID,914.937,VALID,0,VALID,95.0716,VALID,0,VALID,17.9079,VALID,7,VALID,0,
2010-12-21, 03:26:04,VALID,914.93,VALID,0,VALID,95.2927,VALID,0.107441,VALID,17.9274,VALID,7,VALID,0,
2010-12-21, 03:27:04,VALID,914.938,VALID,0,VALID,95.529,VALID,0.107441,VALID,17.9872,VALID,7,VALID,0,
2010-12-21, 03:28:04,VALID,914.909,VALID,0,VALID,95.4909,VALID,0.107441,VALID,17.9677,VALID,7,VALID,0.271484,
2010-12-21, 03:29:04,VALID,914.924,VALID,0,VALID,95.3994,VALID,0.107441,VALID,17.9482,VALID,7,VALID,0,
2010-12-21, 03:30:04,VALID,914.893,VALID,0,VALID,95.186,VALID,0.107441,VALID,17.9092,VALID,7,VALID,0,
2010-12-21, 03:31:04,VALID,914.909,VALID,0,VALID,94.8734,VALID,0.107441,VALID,17.8508,VALID,7,VALID,0,
2010-12-21, 03:32:04,VALID,914.904,VALID,0,VALID,94.4236,VALID,0,VALID,17.8118,VALID,7,VALID,0.119922,
2010-12-21, 03:33:04,VALID,914.886,VALID,0,VALID,94.0501,VALID,0,VALID,17.7143,VALID,7,VALID,0.241797,
2010-12-21, 03:34:04,VALID,914.918,VALID,0,VALID,94.3855,VALID,0,VALID,17.6559,VALID,7,VALID,0.0632813,
2010-12-21, 03:35:04,VALID,914.914,VALID,0,VALID,94.6371,VALID,0,VALID,17.6169,VALID,7,VALID,0.0582031,
2010-12-21, 03:36:04,VALID,914.921,VALID,0,VALID,94.8658,VALID,0.107441,VALID,17.5974,VALID,7,VALID,0.367969,
2010-12-21, 03:37:04,VALID,914.916,VALID,0,VALID,95.2012,VALID,0,VALID,17.6559,VALID,7,VALID,0.427344,
2010-12-21, 03:38:04,VALID,914.943,VALID,0,VALID,95.4147,VALID,0.107441,VALID,17.7533,VALID,7,VALID,0.308984,
2010-12-21, 03:39:04,VALID,914.921,VALID,0,VALID,95.2698,VALID,0.107441,VALID,17.8313,VALID,7,VALID,0.191406,
2010-12-21, 03:40:04,VALID,914.917,VALID,0,VALID,94.9192,VALID,0,VALID,17.8104,VALID,7,VALID,0,
2010-12-21, 03:41:04,VALID,914.923,VALID,0,VALID,94.4694,VALID,0.107441,VALID,17.8313,VALID,7,VALID,0.562109,
2010-12-21, 03:42:04,VALID,914.933,VALID,0,VALID,94.073,VALID,0,VALID,17.8131,VALID,7,VALID,0.733594,
2010-12-21, 03:43:04,VALID,914.94,VALID,0,VALID,93.9815,VALID,0,VALID,17.7547,VALID,7,VALID,0.684766,
2010-12-21, 03:44:04,VALID,914.936,VALID,0,VALID,94.1187,VALID,0.107441,VALID,17.6948,VALID,7,VALID,0.439844,
2010-12-21, 03:45:04,VALID,914.954,VALID,0,VALID,94.3779,VALID,0,VALID,17.6559,VALID,7,VALID,0.273828,
2010-12-21, 03:46:04,VALID,914.949,VALID,0,VALID,94.66,VALID,0,VALID,17.6948,VALID,7,VALID,0.360938,
2010-12-21, 03:47:04,VALID,914.929,VALID,0,VALID,94.8887,VALID,0,VALID,17.7533,VALID,7,VALID,0,
2010-12-21, 03:48:04,VALID,914.922,VALID,0,VALID,94.7438,VALID,0,VALID,17.7728,VALID,7,VALID,0,